Location: Earls Croome
(52.0667°N, 2.2000°W)
Time: 12:47:33
(UTC+00:00)

COSMOS 2455 - Pass Details

Date: 29 February 2020
Orbit: 901 x 909 km, 67.2° (Epoch: 05 April)

Event Time Altitude Azimuth Distance (km) Brightness Sun altitude
Rises 05:35:42 0° 320° (NW) 3,546 5.6 -13.1°
Reaches altitude 10° 05:38:16 10° 316° (NW) 2,601 4.9 -12.7°
Maximum altitude 05:44:06 53° 241° (WSW) 1,105 3.0 -11.8°
Drops below altitude 10° 05:49:55 10° 166° (SSE) 2,588 5.4 -10.9°
Sets 05:52:28 0° 162° (SSE) 3,525 6.2 -10.6°
